Tucson Davis Monthan, AZ

9:45 AM MST on November 18, 2019 (GMT -0700)
Davis-Monthan Air Force Base

Weather History for KDMA - October, 2019

Change the Weather History Date:

Sunday, October 20, 2019

  Actual Average Record
Temperature  
Mean Temperature 66 °F -  
Max Temperature 80 °F 81 °F 96 °F (2003)
Min Temperature 51 °F 55 °F 43 °F (1949)
Growing Degree Days 16 (Base 50)    
Moisture  
Dew Point 25 °F    
Average Humidity 25    
Maximum Humidity 42    
Minimum Humidity 9    
Precipitation  
Precipitation 0.00 in - - ()
Sea Level Pressure  
Sea Level Pressure 29.83 in    
Wind  
Wind Speed 8 mph (NNE)    
Max Wind Speed 15 mph    
Max Gust Speed 21 mph    
Visibility 10 miles    
Events      
Averages and records for this station are not official NWS values.
T = Trace of Precipitation, MM = Missing Value Source: NWS Daily Summary

Daily Weather History Graph

Daily Weather History Graph

Search for Another Location

Airport or City:

Astronomy

Oct. 20, 2019 Rise Set
Actual Time 6:30 AM MST 5:45 PM MST
Civil Twilight 6:05 AM MST 6:10 PM MST
Nautical Twilight 5:37 AM MST 6:38 PM MST
Astronomical Twilight 5:08 AM MST 7:07 PM MST
Moon 11:11 PM MST (10/20) 12:48 PM MST (10/20)
Length of Visible Light 12h 04m
Length of Day
11h 14m
Waning Gibbous, 58% of the Moon is Illuminated
Oct 20
Waning Gibbous
Oct 21
Last Quarter
Oct 27
New
Nov 4
First Quarter
Nov 12
Full

Hourly Weather History & Observations

Time (MST) Temp. Dew Point Humidity Pressure Visibility Wind Dir Wind Speed Gust Speed Precip Events Conditions
12:58 AM 55.0 °F 29.8 °F 38% 29.80 in 10.0 mi SE 9.2 mph - N/A   Clear
1:58 AM 54.0 °F 28.2 °F 37% 29.79 in 10.0 mi ESE 8.1 mph - N/A   Clear
2:58 AM 52.7 °F 28.4 °F 39% 29.78 in 10.0 mi ESE 8.1 mph - N/A   Clear
3:58 AM 51.3 °F 28.4 °F 41% 29.78 in 10.0 mi ESE 10.4 mph - N/A   Clear
4:58 AM 53.4 °F 29.1 °F 39% 29.79 in 10.0 mi ESE 9.2 mph - N/A   Clear
5:58 AM 51.6 °F 28.8 °F 41% 29.80 in 10.0 mi ESE 9.2 mph - N/A   Clear
6:58 AM 51.6 °F 29.3 °F 42% 29.83 in 10.0 mi Calm Calm - N/A   Clear
7:58 AM 60.3 °F 31.1 °F 33% 29.84 in 10.0 mi ESE 9.2 mph - N/A   Clear
8:58 AM 65.7 °F 30.7 °F 27% 29.87 in 10.0 mi SSE 5.8 mph - N/A   Clear
9:58 AM 70.2 °F 31.6 °F 24% 29.87 in 10.0 mi Calm Calm - N/A   Clear
10:58 AM 74.5 °F 22.1 °F 14% 29.86 in 10.0 mi West 4.6 mph - N/A   Clear
11:58 AM 77.0 °F 16.2 °F 10% 29.84 in 10.0 mi NW 6.9 mph - N/A   Clear
12:58 PM 79.3 °F 15.6 °F 9% 29.83 in 10.0 mi NNW 10.4 mph 18.4 mph N/A   Clear
1:58 PM 79.9 °F 22.6 °F 12% 29.81 in 10.0 mi NNW 9.2 mph - N/A   Clear
2:58 PM 80.4 °F 23.2 °F 12% 29.81 in 10.0 mi NNW 15.0 mph 20.7 mph N/A   Clear
3:58 PM 79.7 °F 24.4 °F 13% 29.81 in 10.0 mi NW 12.7 mph 19.6 mph N/A   Clear
4:58 PM 77.9 °F 23.0 °F 13% 29.80 in 10.0 mi NNW 12.7 mph - N/A   Clear
5:58 PM 73.8 °F 23.2 °F 15% 29.83 in 10.0 mi NW 6.9 mph - N/A   Clear
6:58 PM 69.8 °F 23.0 °F 17% 29.84 in 10.0 mi NW 5.8 mph - N/A   Clear
7:58 PM 67.5 °F 22.5 °F 18% 29.86 in 10.0 mi North 5.8 mph - N/A   Clear
8:58 PM 64.6 °F 23.7 °F 21% 29.86 in 10.0 mi West 6.9 mph - N/A   Clear
9:58 PM 61.5 °F 24.4 °F 24% 29.87 in 10.0 mi SW 5.8 mph - N/A   Clear
10:58 PM 57.2 °F 24.4 °F 28% 29.89 in 10.0 mi SE 6.9 mph - N/A   Clear
11:58 PM 55.0 °F 25.0 °F 31% 29.89 in 10.0 mi ESE 8.1 mph - N/A   Clear